Location: Biltmore Gardens
(41.6070°N, 83.4666°W)
Time: 15:07:52
(UTC+00:00)

GP-B - Pass Details

Date: 14 July 2020
Orbit: 631 x 635 km, 89.8° (Epoch: 13 August)

Event Time Altitude Azimuth Distance (km) Brightness Sun altitude
Rises 04:13:26 0° 5° (N) 2,937 7.6 -23.7°
Reaches altitude 10° 04:15:41 10° 9° (N) 2,023 6.5 -23.8°
Enters shadow 04:19:51 60° 73° (ENE) 729 3.3 -24.1°
